{"data":{"norad_id":51637,"epoch":"2026-05-25T03:20:45.957120Z","epoch_age_seconds":69800,"freshness":"FRESH","line1":"1 51637U 22012R   26145.13942080  .00000110  00000+0  25121-3 0  9999","line2":"2 51637  87.9153  10.4631 0002074  77.4550 282.6814 13.17651187210681","mean_motion":13.17651187,"eccentricity":0.0002074,"inclination_deg":87.9153,"raan_deg":10.4631,"arg_perigee_deg":77.455,"mean_anomaly_deg":282.6814,"bstar":0.00025121,"rev_number":21068,"period_min":109.28537189562,"perigee_km":1192.1344814939,"apogee_km":1195.2752815063,"semimajor_km":7571.8418815001,"source":"CELESTRAK","updated_at":"2026-05-25T13:38:22.579132Z"}}